Location: Isle-of-Palms
(32.8045°N, 79.7399°W)
Time: 21:38:12
(UTC+00:00)

Hubble Space Telescope - Pass Details

Date: 13 August 2022
Orbit: 532 x 535 km, 28.5° (Epoch: 23 September)

Event Time Altitude Azimuth Distance (km) Brightness Sun altitude
Rises 01:04:26 0° 265° (W) 2,667 5.4 -12.0°
Reaches altitude 10° 01:06:47 10° 258° (WSW) 1,776 4.2 -12.4°
Maximum altitude 01:10:38 40° 188° (S) 793 1.4 -13.1°
Enters shadow 01:12:49 22° 131° (SE) 1,195 1.9 -13.5°
